National Weather Service Raw Text Product

Displaying AFOS PIL: RWRIA Received: 2017-11-15 04:00 UTC


339 
ASUS43 KDMX 150406
RWRIA 

WEATHER ROUNDUP FOR IOWA
NATIONAL WEATHER SERVICE DES MOINES IA
1000 PM CST TUE NOV 14 2017

NOTE: "FAIR" INDICATES FEW OR NO CLOUDS BELOW 12,000 FEET WITH NO
SIGNIFICANT WEATHER AND/OR OBSTRUCTIONS TO VISIBILITY.

* - THESE STATIONS ARE NOT NWS STATIONS...THUS NOT UNDER NWS
QUALITY CONTROL.  THEY ALSO DO NOT REPORT WEATHER SUCH 
AS PRECIPITATION OR FOG.  

IAZ001>003-012>014-020>022-031>034-043>046-150500-
   NORTHWEST IOWA
  
CITY           SKY/WX    TMP DP  RH WIND       PRES   REMARKS
CARROLL *      CLOUDY    54  52  94 W8        29.85R                  
CHEROKEE *     CLOUDY    49  49  99 SW8       29.82F                  
DENISON *      CLOUDY    50  50 100 SW6       29.86S                  
LE MARS *      CLOUDY    50  48  93 SW8       29.83R                  
ORANGE CITY *  CLOUDY    50  50 100 W10       29.81R                  
SHELDON *      PTCLDY    48  48 100 SW13      29.80R                  
SIOUX CITY     CLOUDY    50  49  96 SW6       29.84R                  
SPENCER        CLOUDY    50  48  93 W9        29.80F                  
STORM LAKE *   CLOUDY    48  48 100 SW12      29.81F FOG              
$$
 
IAZ055>058-069>071-079>083-090>094-150500-
   SOUTHWEST IOWA
  
CITY           SKY/WX    TMP DP  RH WIND       PRES   REMARKS
ATLANTIC *     CLOUDY    54  54 100 S12       29.85S FOG              
AUDUBON *      DRIZZLE   54  52  94 SW5       29.86S                  
CLARINDA *       N/A     54  54 100 S9          N/A  FOG              
COUNCIL BLFS * CLOUDY    54  54 100 SW7       29.86S FOG              
CRESTON *      CLOUDY    52  52 100 S13       29.88F FOG              
HARLAN  *      CLOUDY    54  54 100 W8        29.89S                  
LAMONI         LGT RAIN  51  50  96 S12       29.90R FOG              
RED OAK *      CLOUDY    54  54 100 S9        29.87S FOG              
SHENANDOAH *   CLOUDY    55  54  94 SW5       29.87F FOG              
$$
 
IAZ047>049-059>061-072>074-084-150500-
   CENTRAL IOWA
  
CITY           SKY/WX    TMP DP  RH WIND       PRES   REMARKS
AMES           CLOUDY    50  50 100 S9        29.86S FOG              
ANKENY *       CLOUDY    50  50 100 S10       29.88S FOG              
BOONE *        CLOUDY    50  50 100 S12       29.84F FOG              
CHARITON *     CLOUDY    50  48  93 S10       29.90R FOG              
DES MOINES     DRIZZLE   51  51 100 S10       29.87S FOG              
GRINNELL*      DRZL/FOG  47  47  97 S10       29.91S VSB 3/4          
KNOXVILLE *    CLOUDY    50  48  93 S8        29.89R FOG              
MARSHALLTOWN   CLOUDY    48  48 100 S13       29.87S FOG              
NEWTON *       FOG       48  48 100 S10       29.89S VSB 1            
PELLA *        DRIZZLE   49  48  97 S8        29.92R                  
PERRY *        CLOUDY    52  52  99 S10       29.85S FOG              
$$
 
IAZ004>006-015-016-023>025-035-036-150500-
   NORTH CENTRAL IOWA
  
CITY           SKY/WX    TMP DP  RH WIND       PRES   REMARKS
ALGONA *       CLOUDY    50  50 100 S13       29.81F FOG              
CLARION *      CLOUDY    50  50 100 SW7       29.84S FOG              
ESTHERVILLE    CLOUDY    48  48 100 SW7       29.80R                  
FORT DODGE *   LGT RAIN  51  51 100 SW7       29.84S FOG              
MASON CITY     CLOUDY    48  47  96 S9        29.85S FOG              
FOREST CITY *  CLOUDY    50  50 100 S12       29.82F FOG              
WEBSTER CITY * CLOUDY    50  50 100 S12       29.82F FOG              
IOWA FALLS *   DRIZZLE   49  48  97 S10       29.86F                  
$$

IAZ007>011-017>019-026>030-037>042-050>054-066-150500-
   NORTHEAST IOWA
  
CITY           SKY/WX    TMP DP  RH WIND       PRES   REMARKS
CEDAR RAPIDS   CLOUDY    47  41  80 S8        29.91S                  
CHARLES CITY * CLOUDY    46  46 100 S12       29.86F FOG              
CLINTON *      CLOUDY    48  39  71 S14       29.96F                  
DECORAH *      CLOUDY    43  43 100 S12       29.87F FOG              
DUBUQUE        CLOUDY    44  39  82 S9        29.94R                  
MONTICELLO *   CLOUDY    46  39  76 S8        29.93S                  
OELWEIN *      CLOUDY    45  45 100 S13       29.91S FOG              
WATERLOO       CLOUDY    46  45  96 S10       29.88S FOG              
$$
 
IAZ064-065-067-068-078-150500-
   EAST CENTRAL IOWA
  
CITY           SKY/WX    TMP DP  RH WIND       PRES   REMARKS
DAVENPORT      CLOUDY    49  37  63 S13G23    29.97F                  
IOWA CITY      CLOUDY    50  40  68 S12       29.94F                  
MT. PLEASANT * CLOUDY    49  39  69 S12       29.95F                  
MUSCATINE *    CLOUDY    48  39  71 S8        29.96F                  
QUAD CITIES    CLOUDY    50  37  61 S15       29.96F                  
$$
 
IAZ062-063-075>077-085>089-095>099-150500-
   SOUTHEAST IOWA
  
CITY           SKY/WX    TMP DP  RH WIND       PRES   REMARKS
BURLINGTON     CLOUDY    49  38  65 S14       29.96F                  
FAIRFIELD *    CLOUDY    50  45  81 S13       29.92F                  
FORT MADISON * CLOUDY    50  39  66 S8        29.97S                  
KEOKUK *       CLOUDY    52  39  62 S8G16     29.95F                  
OSKALOOSA *    CLOUDY    48  47  98 S12       29.91S FOG              
OTTUMWA        CLOUDY    49  48  97 S13       29.91F FOG              
WASHINGTON *   CLOUDY    50  43  76 S14       29.94F                  
$$

ABBREVIATIONS USED IN REMARKS
   TC - TEMPERATURES IN CELSIUS
  WCI - WIND CHILL INDEX
   HX - HEAT INDEX
  VSB - VISIBILITY  
$$

  

663 
ASUS43 KDMX 150401
RWRIA 

WEATHER ROUNDUP FOR IOWA
NATIONAL WEATHER SERVICE DES MOINES IA
1000 PM CST TUE NOV 14 2017

NOTE: "FAIR" INDICATES FEW OR NO CLOUDS BELOW 12,000 FEET WITH NO
SIGNIFICANT WEATHER AND/OR OBSTRUCTIONS TO VISIBILITY.

* - THESE STATIONS ARE NOT NWS STATIONS...THUS NOT UNDER NWS
QUALITY CONTROL.  THEY ALSO DO NOT REPORT WEATHER SUCH 
AS PRECIPITATION OR FOG.  

IAZ001>003-012>014-020>022-031>034-043>046-150500-
   NORTHWEST IOWA
  
CITY           SKY/WX    TMP DP  RH WIND       PRES   REMARKS
CARROLL *      CLOUDY    54  52  94 W8        29.85R                  
CHEROKEE *     CLOUDY    49  49  99 SW8       29.82F                  
DENISON *      CLOUDY    50  50 100 SW6       29.86S                  
LE MARS *      CLOUDY    50  48  93 SW8       29.83R                  
ORANGE CITY *  CLOUDY    50  50 100 W10       29.81R                  
SHELDON *      PTCLDY    48  48 100 SW13      29.80R                  
SIOUX CITY     CLOUDY    50  49  96 SW6       29.84R                  
SPENCER        CLOUDY    50  48  93 SW9       29.80F                  
STORM LAKE *   CLOUDY    48  48 100 SW12      29.81F FOG              
$$
 
IAZ055>058-069>071-079>083-090>094-150500-
   SOUTHWEST IOWA
  
CITY           SKY/WX    TMP DP  RH WIND       PRES   REMARKS
ATLANTIC *     CLOUDY    54  54 100 S12       29.85S FOG              
AUDUBON *      DRIZZLE   54  52  94 SW5       29.86S                  
CLARINDA *       N/A     54  54 100 S9          N/A  FOG              
COUNCIL BLFS * CLOUDY    54  54 100 SW7       29.86S FOG              
CRESTON *      CLOUDY    52  52 100 S13       29.88F FOG              
HARLAN  *      CLOUDY    54  54 100 W8        29.89S                  
LAMONI         LGT RAIN  51  50  96 S12       29.90R FOG              
RED OAK *      CLOUDY    54  54 100 S9        29.87S FOG              
SHENANDOAH *   CLOUDY    55  54  94 SW5       29.87F FOG              
$$
 
IAZ047>049-059>061-072>074-084-150500-
   CENTRAL IOWA
  
CITY           SKY/WX    TMP DP  RH WIND       PRES   REMARKS
AMES           CLOUDY    50  50 100 S9        29.86S FOG              
ANKENY *       CLOUDY    50  50 100 S10       29.88S FOG              
BOONE *        CLOUDY    50  50 100 S12       29.84F FOG              
CHARITON *     CLOUDY    50  48  93 S10       29.90R FOG              
DES MOINES     DRIZZLE   51  51 100 S10       29.87S FOG              
GRINNELL*      DRZL/FOG  47  47  97 S10       29.91S VSB 3/4          
KNOXVILLE *    CLOUDY    50  48  93 S8        29.89R FOG              
MARSHALLTOWN   CLOUDY    48  48 100 S13       29.87S FOG              
NEWTON *       FOG       48  48 100 S10       29.89S VSB 1            
PELLA *        DRIZZLE   49  48  97 S8        29.92R                  
PERRY *        CLOUDY    52  52  99 S10       29.85S FOG              
$$
 
IAZ004>006-015-016-023>025-035-036-150500-
   NORTH CENTRAL IOWA
  
CITY           SKY/WX    TMP DP  RH WIND       PRES   REMARKS
ALGONA *       CLOUDY    50  50 100 S13       29.81F FOG              
CLARION *      CLOUDY    50  50 100 SW7       29.84S FOG              
ESTHERVILLE    CLOUDY    48  48 100 SW7       29.80R                  
FORT DODGE *   LGT RAIN  51  51 100 SW7       29.84S FOG              
MASON CITY     CLOUDY    48  47  96 S9        29.85S FOG              
FOREST CITY *  CLOUDY    50  50 100 S12       29.82F FOG              
WEBSTER CITY * CLOUDY    50  50 100 S12       29.82F FOG              
IOWA FALLS *   DRIZZLE   49  48  97 S10       29.86F                  
$$

IAZ007>011-017>019-026>030-037>042-050>054-066-150500-
   NORTHEAST IOWA
  
CITY           SKY/WX    TMP DP  RH WIND       PRES   REMARKS
CEDAR RAPIDS   CLOUDY    47  41  80 S8        29.91S                  
CHARLES CITY * CLOUDY    46  46 100 S12       29.86F FOG              
CLINTON *      CLOUDY    48  39  71 S14       29.96F                  
DECORAH *      CLOUDY    43  43 100 S12       29.87F FOG              
DUBUQUE        CLOUDY    44  39  82 S9        29.94R                  
MONTICELLO *   CLOUDY    46  39  76 S8        29.93S                  
OELWEIN *      CLOUDY    45  45 100 S13       29.91S FOG              
WATERLOO       CLOUDY    46  45  96 S10       29.88S FOG              
$$
 
IAZ064-065-067-068-078-150500-
   EAST CENTRAL IOWA
  
CITY           SKY/WX    TMP DP  RH WIND       PRES   REMARKS
DAVENPORT      CLOUDY    49  37  63 S13G23    29.97F                  
IOWA CITY      CLOUDY    50  40  68 S12       29.94F                  
MT. PLEASANT * CLOUDY    49  39  69 S12       29.95F                  
MUSCATINE *    CLOUDY    48  39  71 S8        29.96F                  
QUAD CITIES    CLOUDY    50  37  61 S15       29.96F                  
$$
 
IAZ062-063-075>077-085>089-095>099-150500-
   SOUTHEAST IOWA
  
CITY           SKY/WX    TMP DP  RH WIND       PRES   REMARKS
BURLINGTON     CLOUDY    49  38  65 S14       29.96F                  
FAIRFIELD *    CLOUDY    50  45  81 S13       29.92F                  
FORT MADISON * CLOUDY    50  39  66 S8        29.97S                  
KEOKUK *       CLOUDY    52  39  62 S8G16     29.95F                  
OSKALOOSA *    CLOUDY    48  47  98 S12       29.91S FOG              
OTTUMWA        CLOUDY    49  48  97 S13       29.91F FOG              
WASHINGTON *   CLOUDY    50  43  76 S14       29.94F                  
$$

ABBREVIATIONS USED IN REMARKS
   TC - TEMPERATURES IN CELSIUS
  WCI - WIND CHILL INDEX
   HX - HEAT INDEX
  VSB - VISIBILITY  
$$